Time,TemperatureF,DewpointF,PressureIn,WindDirection,WindDirectionDegrees,WindSpeedMPH,WindSpeedGustMPH,Humidity,HourlyPrecipIn,Conditions,Clouds,dailyrainin,SoftwareType,DateUTC
2013-06-13 00:01:00,78.0,73.0,30.03,NE,48,0.0,1.0,86,0.00,,,0.00,,2013-06-13 04:01:00,
2013-06-13 00:12:00,78.0,73.0,30.03,NE,48,0.0,1.0,86,0.00,,,0.00,,2013-06-13 04:12:00,
2013-06-13 00:22:00,78.0,73.0,30.03,NE,48,0.0,1.0,86,0.00,,,0.00,,2013-06-13 04:22:00,
2013-06-13 00:32:00,78.0,74.0,30.02,NE,48,0.0,0.0,87,0.00,,,0.00,,2013-06-13 04:32:00,
2013-06-13 00:43:00,78.0,74.0,30.02,NE,48,0.0,0.0,87,0.00,,,0.00,,2013-06-13 04:43:00,
2013-06-13 00:53:00,77.0,73.0,30.02,NE,48,0.0,0.0,87,0.00,,,0.00,,2013-06-13 04:53:00,
2013-06-13 01:02:00,77.0,73.0,30.01,NE,48,0.0,0.0,87,0.00,,,0.00,,2013-06-13 05:02:00,
2013-06-13 01:12:00,77.0,73.0,30.01,NE,48,0.0,1.0,87,0.00,,,0.00,,2013-06-13 05:12:00,
2013-06-13 01:24:00,77.0,73.0,30.01,NE,48,0.0,0.0,87,0.00,,,0.00,,2013-06-13 05:24:00,
2013-06-13 01:33:00,77.0,73.0,30.01,NE,48,0.0,0.0,87,0.00,,,0.00,,2013-06-13 05:33:00,
2013-06-13 01:43:00,77.0,73.0,30.00,NE,48,0.0,0.0,88,0.00,,,0.00,,2013-06-13 05:43:00,
2013-06-13 01:53:00,77.0,73.0,30.01,NE,48,0.0,0.0,88,0.00,,,0.00,,2013-06-13 05:53:00,
2013-06-13 02:02:00,77.0,73.0,30.00,NE,48,0.0,1.0,88,0.00,,,0.00,,2013-06-13 06:02:00,
2013-06-13 02:11:00,76.0,72.0,30.00,NE,48,0.0,0.0,88,0.00,,,0.00,,2013-06-13 06:11:00,
2013-06-13 02:22:00,76.0,72.0,30.00,NE,48,0.0,0.0,88,0.00,,,0.00,,2013-06-13 06:22:00,
2013-06-13 02:33:00,76.0,72.0,30.00,NE,48,0.0,1.0,88,0.00,,,0.00,,2013-06-13 06:33:00,
2013-06-13 02:44:00,76.0,72.0,29.99,NE,48,0.0,0.0,88,0.00,,,0.00,,2013-06-13 06:44:00,
2013-06-13 02:52:00,76.0,72.0,29.99,NE,48,0.0,0.0,88,0.00,,,0.00,,2013-06-13 06:52:00,
2013-06-13 03:01:00,76.0,72.0,29.99,NE,48,0.0,1.0,88,0.00,,,0.00,,2013-06-13 07:01:00,
2013-06-13 03:12:00,76.0,72.0,29.99,NE,48,0.0,1.0,88,0.00,,,0.00,,2013-06-13 07:12:00,
2013-06-13 03:22:00,76.0,72.0,29.99,NE,48,0.0,0.0,88,0.00,,,0.00,,2013-06-13 07:22:00,
2013-06-13 03:33:00,76.0,72.0,29.98,NE,48,0.0,1.0,88,0.00,,,0.00,,2013-06-13 07:33:00,
2013-06-13 03:42:00,76.0,72.0,29.98,NE,48,0.0,0.0,88,0.00,,,0.00,,2013-06-13 07:42:00,
2013-06-13 03:52:00,75.0,72.0,29.99,NE,48,0.0,1.0,89,0.00,,,0.00,,2013-06-13 07:52:00,
2013-06-13 04:01:00,75.0,72.0,29.99,NE,48,0.0,1.0,89,0.00,,,0.00,,2013-06-13 08:01:00,
2013-06-13 04:11:00,75.0,72.0,29.99,NE,48,0.0,0.0,89,0.00,,,0.00,,2013-06-13 08:11:00,
2013-06-13 04:22:00,76.0,73.0,30.00,NE,48,0.0,1.0,89,0.00,,,0.00,,2013-06-13 08:22:00,
2013-06-13 04:32:00,75.0,72.0,29.99,NE,48,0.0,1.0,89,0.00,,,0.00,,2013-06-13 08:32:00,
2013-06-13 04:43:00,75.0,72.0,29.99,NE,48,0.0,0.0,89,0.00,,,0.00,,2013-06-13 08:43:00,
2013-06-13 04:52:00,76.0,73.0,29.99,NE,48,0.0,0.0,89,0.00,,,0.00,,2013-06-13 08:52:00,
2013-06-13 05:02:00,75.0,72.0,29.99,NE,48,0.0,1.0,89,0.00,,,0.00,,2013-06-13 09:02:00,
2013-06-13 05:12:00,75.0,72.0,29.99,NE,48,0.0,0.0,89,0.00,,,0.00,,2013-06-13 09:12:00,
2013-06-13 05:22:00,75.0,72.0,29.99,NE,48,0.0,0.0,89,0.00,,,0.00,,2013-06-13 09:22:00,
2013-06-13 05:32:00,75.0,72.0,29.98,NE,48,0.0,0.0,89,0.00,,,0.00,,2013-06-13 09:32:00,
2013-06-13 05:42:00,75.0,72.0,29.98,NE,48,0.0,0.0,89,0.00,,,0.00,,2013-06-13 09:42:00,
2013-06-13 05:52:00,75.0,72.0,29.98,NE,48,0.0,0.0,89,0.00,,,0.00,,2013-06-13 09:52:00,
2013-06-13 06:01:00,75.0,72.0,29.98,NE,48,0.0,0.0,89,0.00,,,0.00,,2013-06-13 10:01:00,
2013-06-13 06:11:00,75.0,72.0,29.98,NE,48,0.0,0.0,89,0.00,,,0.00,,2013-06-13 10:11:00,
2013-06-13 06:22:00,75.0,72.0,29.98,NE,48,0.0,0.0,89,0.00,,,0.00,,2013-06-13 10:22:00,
2013-06-13 06:33:00,75.0,72.0,29.98,NE,48,0.0,0.0,90,0.00,,,0.00,,2013-06-13 10:33:00,
2013-06-13 06:43:00,75.0,72.0,29.98,NE,48,0.0,0.0,90,0.00,,,0.00,,2013-06-13 10:43:00,
2013-06-13 06:53:00,75.0,72.0,29.99,NE,48,0.0,0.0,90,0.00,,,0.00,,2013-06-13 10:53:00,
2013-06-13 07:02:00,75.0,72.0,29.99,NE,48,0.0,1.0,89,0.00,,,0.00,,2013-06-13 11:02:00,
2013-06-13 07:11:00,75.0,72.0,29.99,NE,48,0.0,0.0,89,0.00,,,0.00,,2013-06-13 11:11:00,
2013-06-13 07:23:00,75.0,72.0,29.99,NE,48,0.0,0.0,90,0.00,,,0.00,,2013-06-13 11:23:00,
2013-06-13 07:32:00,76.0,73.0,29.98,NE,48,0.0,0.0,90,0.00,,,0.00,,2013-06-13 11:32:00,
2013-06-13 07:42:00,76.0,73.0,29.99,NE,48,0.0,0.0,90,0.00,,,0.00,,2013-06-13 11:42:00,
2013-06-13 07:52:00,76.0,73.0,29.99,NE,48,0.0,0.0,90,0.00,,,0.00,,2013-06-13 11:52:00,
2013-06-13 08:01:00,76.0,73.0,30.00,NE,48,0.0,0.0,90,0.00,,,0.00,,2013-06-13 12:01:00,
2013-06-13 08:12:00,76.0,73.0,30.00,NE,48,0.0,1.0,90,0.00,,,0.00,,2013-06-13 12:12:00,
2013-06-13 08:22:00,77.0,74.0,30.01,NE,48,0.0,1.0,90,0.00,,,0.00,,2013-06-13 12:22:00,
2013-06-13 08:35:00,77.0,74.0,30.01,NE,48,1.0,5.0,90,0.00,,,0.00,,2013-06-13 12:35:00,
2013-06-13 08:43:00,77.0,74.0,30.01,NE,48,2.0,5.0,90,0.00,,,0.00,,2013-06-13 12:43:00,
2013-06-13 08:52:00,77.0,74.0,30.01,NE,48,2.0,6.0,89,0.00,,,0.00,,2013-06-13 12:52:00,
2013-06-13 09:01:00,77.0,74.0,30.02,NE,48,2.0,5.0,89,0.00,,,0.00,,2013-06-13 13:01:00,
2013-06-13 09:11:00,78.0,74.0,30.02,SSW,205,2.0,5.0,89,0.00,,,0.00,,2013-06-13 13:11:00,
2013-06-13 09:22:00,79.0,75.0,30.02,SW,217,5.0,7.0,88,0.00,,,0.00,,2013-06-13 13:22:00,
2013-06-13 09:32:00,79.0,75.0,30.02,SW,217,5.0,7.0,88,0.00,,,0.00,,2013-06-13 13:32:00,
2013-06-13 09:43:00,80.0,75.0,30.03,SW,217,5.0,8.0,85,0.00,,,0.00,,2013-06-13 13:43:00,
2013-06-13 09:53:00,81.0,76.0,30.03,SSW,201,2.0,8.0,84,0.00,,,0.00,,2013-06-13 13:53:00,
2013-06-13 10:02:00,81.0,75.0,30.03,SSW,194,3.0,7.0,83,0.00,,,0.00,,2013-06-13 14:02:00,
2013-06-13 10:11:00,82.0,76.0,30.03,SSE,148,1.0,6.0,81,0.00,,,0.00,,2013-06-13 14:11:00,
2013-06-13 10:22:00,83.0,76.0,30.03,South,172,2.0,5.0,79,0.00,,,0.00,,2013-06-13 14:22:00,
2013-06-13 10:33:00,83.0,76.0,30.03,South,179,3.0,7.0,79,0.00,,,0.00,,2013-06-13 14:33:00,
2013-06-13 10:43:00,84.0,76.0,30.03,South,169,2.0,6.0,76,0.00,,,0.00,,2013-06-13 14:43:00,
2013-06-13 10:53:00,84.0,76.0,30.03,South,169,2.0,6.0,76,0.00,,,0.00,,2013-06-13 14:53:00,
2013-06-13 11:02:00,84.0,75.0,30.03,SSW,200,3.0,7.0,75,0.00,,,0.00,,2013-06-13 15:02:00,
2013-06-13 11:12:00,84.0,74.0,30.03,SW,221,3.0,8.0,72,0.00,,,0.00,,2013-06-13 15:12:00,
2013-06-13 11:22:00,84.0,74.0,30.03,SW,221,3.0,8.0,72,0.00,,,0.00,,2013-06-13 15:22:00,
2013-06-13 11:33:00,86.0,75.0,30.03,SE,129,3.0,7.0,70,0.00,,,0.00,,2013-06-13 15:33:00,
2013-06-13 11:43:00,86.0,75.0,30.03,SE,129,3.0,7.0,70,0.00,,,0.00,,2013-06-13 15:43:00,
2013-06-13 11:53:00,86.0,76.0,30.02,ESE,121,4.0,8.0,73,0.00,,,0.00,,2013-06-13 15:53:00,
2013-06-13 12:02:00,85.0,76.0,30.02,ENE,73,5.0,12.0,74,0.00,,,0.00,,2013-06-13 16:02:00,
2013-06-13 12:12:00,86.0,75.0,30.02,SE,129,8.0,13.0,71,0.00,,,0.00,,2013-06-13 16:12:00,
2013-06-13 12:22:00,86.0,76.0,30.02,East,84,5.0,12.0,72,0.00,,,0.00,,2013-06-13 16:22:00,
2013-06-13 12:33:00,86.0,75.0,30.02,SE,142,5.0,10.0,71,0.00,,,0.00,,2013-06-13 16:33:00,
2013-06-13 12:43:00,86.0,75.0,30.03,SSE,155,6.0,15.0,71,0.00,,,0.00,,2013-06-13 16:43:00,
2013-06-13 12:53:00,86.0,76.0,30.02,ENE,69,6.0,15.0,72,0.00,,,0.00,,2013-06-13 16:53:00,
2013-06-13 13:02:00,86.0,76.0,30.03,SE,144,5.0,11.0,72,0.00,,,0.00,,2013-06-13 17:02:00,
2013-06-13 13:11:00,86.0,76.0,30.03,ESE,111,7.0,11.0,72,0.00,,,0.00,,2013-06-13 17:11:00,
2013-06-13 13:24:00,84.0,75.0,30.02,SE,146,6.0,14.0,74,0.00,,,0.00,,2013-06-13 17:24:00,
2013-06-13 13:33:00,83.0,74.0,30.01,SSE,159,7.0,11.0,75,0.00,,,0.00,,2013-06-13 17:33:00,
2013-06-13 13:43:00,84.0,75.0,30.01,SSE,150,4.0,8.0,75,0.00,,,0.00,,2013-06-13 17:43:00,
2013-06-13 13:53:00,84.0,75.0,30.01,SE,136,3.0,7.0,75,0.00,,,0.00,,2013-06-13 17:53:00,
2013-06-13 14:02:00,84.0,75.0,30.00,SE,129,4.0,7.0,74,0.00,,,0.00,,2013-06-13 18:02:00,
2013-06-13 14:11:00,85.0,75.0,30.00,SSE,167,2.0,14.0,72,0.00,,,0.00,,2013-06-13 18:11:00,
2013-06-13 14:22:00,85.0,75.0,30.00,SE,135,5.0,9.0,72,0.00,,,0.00,,2013-06-13 18:22:00,
2013-06-13 14:33:00,85.0,74.0,30.00,SE,143,2.0,9.0,70,0.00,,,0.00,,2013-06-13 18:33:00,
2013-06-13 14:43:00,85.0,75.0,30.00,East,82,4.0,8.0,72,0.00,,,0.00,,2013-06-13 18:43:00,
2013-06-13 14:52:00,85.0,75.0,29.99,SSE,148,3.0,6.0,72,0.00,,,0.00,,2013-06-13 18:52:00,
2013-06-13 15:01:00,86.0,76.0,29.98,SE,146,2.0,6.0,72,0.00,,,0.00,,2013-06-13 19:01:00,
2013-06-13 15:11:00,86.0,75.0,29.97,East,88,4.0,8.0,69,0.00,,,0.00,,2013-06-13 19:11:00,
2013-06-13 15:22:00,85.0,74.0,29.97,East,81,3.0,10.0,70,0.00,,,0.00,,2013-06-13 19:22:00,
2013-06-13 15:33:00,85.0,75.0,29.97,East,94,3.0,7.0,71,0.00,,,0.00,,2013-06-13 19:33:00,
2013-06-13 15:43:00,85.0,75.0,29.97,SE,128,4.0,7.0,71,0.00,,,0.00,,2013-06-13 19:43:00,
2013-06-13 15:53:00,85.0,75.0,29.96,SSE,148,2.0,7.0,72,0.00,,,0.00,,2013-06-13 19:53:00,
2013-06-13 16:02:00,85.0,75.0,29.96,SE,136,3.0,10.0,72,0.00,,,0.00,,2013-06-13 20:02:00,
2013-06-13 16:11:00,86.0,75.0,29.95,SSW,200,4.0,12.0,70,0.00,,,0.00,,2013-06-13 20:11:00,
2013-06-13 16:22:00,87.0,75.0,29.95,ESE,116,5.0,8.0,68,0.00,,,0.00,,2013-06-13 20:22:00,
2013-06-13 16:33:00,87.0,75.0,29.95,East,89,4.0,10.0,68,0.00,,,0.00,,2013-06-13 20:33:00,
2013-06-13 16:44:00,87.0,75.0,29.96,East,83,4.0,10.0,67,0.00,,,0.00,,2013-06-13 20:44:00,
2013-06-13 16:53:00,86.0,75.0,29.95,ENE,73,5.0,12.0,69,0.00,,,0.00,,2013-06-13 20:53:00,
2013-06-13 17:02:00,85.0,74.0,29.94,SSE,167,4.0,10.0,70,0.00,,,0.00,,2013-06-13 21:02:00,
2013-06-13 17:11:00,85.0,74.0,29.94,ESE,120,5.0,12.0,70,0.00,,,0.00,,2013-06-13 21:11:00,
2013-06-13 17:22:00,84.0,74.0,29.93,ESE,123,7.0,14.0,71,0.00,,,0.00,,2013-06-13 21:22:00,
2013-06-13 17:34:00,83.0,73.0,29.93,South,171,6.0,12.0,73,0.00,,,0.00,,2013-06-13 21:34:00,
2013-06-13 17:43:00,83.0,74.0,29.92,ESE,118,2.0,7.0,74,0.00,,,0.00,,2013-06-13 21:43:00,
2013-06-13 17:52:00,83.0,74.0,29.93,SSW,198,6.0,10.0,75,0.00,,,0.00,,2013-06-13 21:52:00,
2013-06-13 18:02:00,83.0,74.0,29.93,South,178,4.0,10.0,75,0.00,,,0.00,,2013-06-13 22:02:00,
2013-06-13 18:11:00,83.0,74.0,29.93,South,179,4.0,7.0,75,0.00,,,0.00,,2013-06-13 22:11:00,
2013-06-13 18:22:00,83.0,74.0,29.93,South,169,3.0,6.0,75,0.00,,,0.00,,2013-06-13 22:22:00,
2013-06-13 18:33:00,83.0,74.0,29.93,SSW,193,5.0,8.0,75,0.00,,,0.00,,2013-06-13 22:33:00,
2013-06-13 18:43:00,83.0,74.0,29.93,South,188,6.0,9.0,74,0.00,,,0.00,,2013-06-13 22:43:00,
2013-06-13 18:52:00,83.0,74.0,29.93,South,175,4.0,9.0,74,0.00,,,0.00,,2013-06-13 22:52:00,
2013-06-13 19:02:00,83.0,74.0,29.93,SSE,161,3.0,7.0,74,0.00,,,0.00,,2013-06-13 23:02:00,
2013-06-13 19:11:00,83.0,72.0,29.94,SSW,194,5.0,9.0,70,0.00,,,0.00,,2013-06-13 23:11:00,
2013-06-13 19:22:00,82.0,71.0,29.93,SSW,197,6.0,10.0,69,0.00,,,0.00,,2013-06-13 23:22:00,
2013-06-13 19:32:00,82.0,71.0,29.93,South,185,5.0,9.0,70,0.00,,,0.00,,2013-06-13 23:32:00,
2013-06-13 19:43:00,82.0,72.0,29.93,South,184,5.0,8.0,71,0.00,,,0.00,,2013-06-13 23:43:00,
2013-06-13 19:52:00,82.0,72.0,29.93,South,177,4.0,7.0,72,0.00,,,0.00,,2013-06-13 23:52:00,
2013-06-13 20:01:00,82.0,72.0,29.92,South,184,1.0,7.0,73,0.00,,,0.00,,2013-06-14 00:01:00,
2013-06-13 20:12:00,82.0,73.0,29.92,South,184,0.0,4.0,74,0.00,,,0.00,,2013-06-14 00:12:00,
2013-06-13 20:22:00,81.0,72.0,29.93,South,188,5.0,6.0,75,0.00,,,0.00,,2013-06-14 00:22:00,
2013-06-13 20:34:00,81.0,72.0,29.93,South,188,2.0,6.0,75,0.00,,,0.00,,2013-06-14 00:34:00,
2013-06-13 20:43:00,81.0,72.0,29.93,South,188,0.0,4.0,75,0.00,,,0.00,,2013-06-14 00:43:00,
2013-06-13 20:53:00,81.0,73.0,29.94,South,188,0.0,3.0,76,0.00,,,0.00,,2013-06-14 00:53:00,
2013-06-13 21:01:00,80.0,72.0,29.94,South,188,3.0,4.0,76,0.00,,,0.00,,2013-06-14 01:01:00,
2013-06-13 21:11:00,80.0,72.0,29.94,South,188,3.0,5.0,76,0.00,,,0.00,,2013-06-14 01:11:00,
2013-06-13 21:22:00,80.0,72.0,29.95,South,189,2.0,4.0,77,0.00,,,0.00,,2013-06-14 01:22:00,
2013-06-13 21:32:00,80.0,72.0,29.95,SSW,194,4.0,6.0,77,0.00,,,0.00,,2013-06-14 01:32:00,
2013-06-13 21:43:00,80.0,72.0,29.95,SSW,194,1.0,4.0,77,0.00,,,0.00,,2013-06-14 01:43:00,
2013-06-13 21:52:00,80.0,72.0,29.95,SSW,194,2.0,4.0,77,0.00,,,0.00,,2013-06-14 01:52:00,
2013-06-13 22:02:00,80.0,72.0,29.95,SSW,195,4.0,6.0,77,0.00,,,0.00,,2013-06-14 02:02:00,
2013-06-13 22:11:00,79.0,71.0,29.95,SSW,194,2.0,6.0,77,0.00,,,0.00,,2013-06-14 02:11:00,
2013-06-13 22:22:00,79.0,71.0,29.95,SSW,195,1.0,5.0,77,0.00,,,0.00,,2013-06-14 02:22:00,
2013-06-13 22:32:00,79.0,71.0,29.95,SSW,195,0.0,4.0,76,0.00,,,0.00,,2013-06-14 02:32:00,
2013-06-13 22:43:00,79.0,71.0,29.96,SSW,194,0.0,4.0,76,0.00,,,0.00,,2013-06-14 02:43:00,
2013-06-13 22:52:00,79.0,71.0,29.96,SSW,195,1.0,4.0,77,0.00,,,0.00,,2013-06-14 02:52:00,
2013-06-13 23:02:00,78.0,70.0,29.95,SSW,195,1.0,3.0,77,0.00,,,0.00,,2013-06-14 03:02:00,
2013-06-13 23:12:00,78.0,71.0,29.95,SSW,195,0.0,4.0,78,0.00,,,0.00,,2013-06-14 03:12:00,
2013-06-13 23:22:00,78.0,71.0,29.96,SSW,195,1.0,3.0,78,0.00,,,0.00,,2013-06-14 03:22:00,
2013-06-13 23:34:00,78.0,71.0,29.95,SSW,195,1.0,3.0,79,0.00,,,0.00,,2013-06-14 03:34:00,
2013-06-13 23:43:00,78.0,71.0,29.95,SSW,194,0.0,3.0,79,0.00,,,0.00,,2013-06-14 03:43:00,
2013-06-13 23:53:00,77.0,70.0,29.95,SSW,195,1.0,3.0,79,0.00,,,0.00,,2013-06-14 03:53:00,